Location: Newark
(5.8900°S, 42.6378°W)
Time: 16:36:45
(UTC+00:00)

Altair - All Passes

Search period start: 15 September 2019 00:00
Search period end: 25 September 2019 00:00
Orbit: 1501 x 1683 km, 47.2° (Epoch: 14 September)

Date Brightness Start Highest point End Pass type
(mag) Time Alt. Az. Time Alt. Az. Time Alt. Az.
15 Sep - 07:47:05 10° NNW 07:55:58 46° NE 08:04:38 10° ESE visible
15 Sep - 09:52:10 10° WNW 10:00:28 37° SW 10:08:44 10° SSE daylight
15 Sep - 18:28:35 10° SSW 18:37:11 35° SE 18:45:57 10° ENE daylight
15 Sep - 20:32:23 10° SW 20:41:54 54° NW 20:51:40 10° NNE daylight
16 Sep - 07:22:07 10° NNW 07:30:49 41° NE 07:39:17 10° ESE visible
16 Sep - 09:26:43 10° WNW 09:35:17 41° SW 09:43:47 10° SSE daylight
16 Sep - 18:03:42 10° SSW 18:11:57 31° SE 18:20:21 10° ENE daylight
16 Sep - 20:07:06 10° SW 20:16:43 60° NW 20:26:36 10° NNE daylight
17 Sep - 06:57:13 10° NNW 07:05:40 36° NE 07:13:53 10° ESE visible
17 Sep - 09:01:18 10° WNW 09:10:07 46° SW 09:18:49 10° SSE daylight
17 Sep - 17:38:51 10° S 17:46:41 27° SE 17:54:41 10° E daylight
17 Sep - 19:41:50 10° SW 19:51:32 67° NW 20:01:31 10° NNE daylight
17 Sep - 21:53:56 10° WNW 21:56:34 11° NW 21:59:13 10° NNW visible
18 Sep - 06:32:19 10° N 06:40:30 32° NE 06:48:26 10° ESE visible
18 Sep - 08:35:56 10° WNW 08:44:57 52° SW 08:53:50 10° SSE daylight
18 Sep - 17:14:03 10° S 17:21:26 24° SE 17:28:58 10° E daylight
18 Sep - 19:16:37 10° SW 19:26:21 75° NW 19:36:23 10° NNE daylight
18 Sep - 21:27:02 10° WNW 21:31:17 13° NW 21:35:35 10° NNW visible
19 Sep - 06:07:30 10° N 06:15:19 29° NE 06:22:56 10° ESE visible
19 Sep - 08:10:35 10° NW 08:19:48 59° SW 08:28:49 10° SSE visible
19 Sep - 16:49:18 10° S 16:56:10 21° SE 17:03:09 10° E daylight
19 Sep - 18:51:25 10° SW 19:01:10 83° NW 19:11:13 10° NE daylight
19 Sep - 21:00:42 10° W 21:06:01 16° NW 21:11:25 10° NNW visible
20 Sep - 05:42:43 10° N 05:50:08 25° NE 05:57:21 10° ESE visible
20 Sep - 07:45:17 10° NW 07:54:38 66° SW 08:03:46 10° SSE visible
20 Sep - 09:57:06 10° WSW 10:00:05 12° SW 10:03:04 10° SSW daylight
20 Sep - 16:24:38 10° S 16:30:53 19° SE 16:37:14 10° E daylight
20 Sep - 18:26:16 10° SW 18:35:59 89° ESE 18:46:03 10° NE daylight
20 Sep - 20:34:38 10° W 20:40:46 18° NW 20:47:01 10° N daylight
21 Sep - 05:18:00 10° N 05:24:57 22° NE 05:31:41 10° E visible
21 Sep - 07:20:01 10° NW 07:29:29 74° SW 07:38:43 10° SE visible
21 Sep - 09:30:32 10° WSW 09:34:46 14° SW 09:38:59 10° SSW daylight
21 Sep - 16:00:03 10° S 16:05:35 16° SE 16:11:11 10° ESE daylight
21 Sep - 18:01:09 10° SW 18:10:48 81° SE 18:20:49 10° NE daylight
21 Sep - 20:08:45 10° W 20:15:31 21° NW 20:22:27 10° N daylight
22 Sep - 04:53:23 10° N 04:59:44 19° NE 05:05:55 10° E visible
22 Sep - 06:54:47 10° NW 07:04:21 82° SW 07:13:37 10° SE visible
22 Sep - 09:04:19 10° WSW 09:09:28 16° SW 09:14:36 10° S daylight
22 Sep - 15:35:37 10° S 15:40:16 14° SE 15:44:58 10° ESE daylight
22 Sep - 17:36:03 10° SW 17:45:38 73° SE 17:55:33 10° NE daylight
22 Sep - 19:43:00 10° W 19:50:17 24° NW 19:57:47 10° N daylight
23 Sep - 04:28:53 10° NNE 04:34:31 17° NE 04:40:01 10° E visible
23 Sep - 06:29:35 10° NW 06:39:12 90° NE 06:48:30 10° SE visible
23 Sep - 08:38:18 10° W 08:44:11 18° SW 08:50:02 10° S daylight
23 Sep - 15:11:27 10° SSE 15:14:56 12° SE 15:18:26 10° ESE daylight
23 Sep - 17:10:58 10° SSW 17:20:27 66° SE 17:30:16 10° NE daylight
23 Sep - 19:17:21 10° WSW 19:25:04 27° NW 19:33:01 10° N daylight
24 Sep - 04:04:34 10° NNE 04:09:16 14° NE 04:13:54 10° ENE visible
24 Sep - 06:04:25 10° NW 06:14:02 81° NE 06:23:21 10° SE visible
24 Sep - 08:12:24 10° W 08:18:56 21° SW 08:25:23 10° S visible
24 Sep - 14:48:06 10° SSE 14:49:35 10° SE 14:51:03 10° SE daylight
24 Sep - 16:45:55 10° SSW 16:55:16 59° SE 17:04:56 10° NE daylight
24 Sep - 18:51:45 10° WSW 18:59:51 30° NW 19:08:13 10° N daylight
